User: anonymous   Login
Location: Nitra
(0.0000°N, 18.0833°E)
Time: 09:58:53
(UTC+02:00)
Language:

UKube-1 - Orbit

View from above orbital plane
View from above orbital plane
View from above satellite
View from above satellite

Ground track
Ground track

The orbit data is extracted from the following two-line orbital elements,

1 40074U 14037F   24141.80300481  .00013282  00000-0  12687-2 0  9998
2 40074  98.3426  70.0531 0005096 141.6621 218.4959 14.93406570534690
Epoch (UTC): 20 May 2024 19:16:19
Eccentricity: 0.0005096
inclination: 98.3426°
perigee height: 584 km
apogee height: 591 km
right ascension of ascending node: 70.0531°
argument of perigee: 141.6621°
revolutions per day: 14.93406570
mean anomaly at epoch: 218.4959°
orbit number at epoch: 53469

The dashed part of the orbit path shows where the satellite is in the earth's shadow,  

DLR